Live-Position
3D-Globus wird geladen...
Über Starlink 4046
Group: 3 satellites
Beschreibung wird geladen...
Nächste Überflüge
Passes for default location (London). Set your location on the main map for personalized predictions.
Höhenverlauf
Loading altitude history...
No altitude history available
Zweizeiliger Elementsatz
1 52842U 22062N 26124.78183382 .00000343 00000-0 39601-4 0 9991
2 52842 53.2165 142.2380 0000965 62.1196 297.9894 15.08840941214252
Epoch: 4. Mai 2026 •
Age: 9 hours
Aktueller Status
Höhe 550.2 km
Geschwindigkeit 7.59 km/s
Subsatellitenpunkt -32.95°S,
173.1°W
Startdatum 17. Juni 2022
Alter 3.8 years
Typ internet
Startgruppe
Falcon 9 •
Group 4-19 •
50 satellites
Starlink 4091
52830
Starlink 4089 52831
Starlink 4083 52832
Starlink 4086 52833
Starlink 4108 52834
Starlink 4080 52835
Starlink 4043 52836
Starlink 4036 52837
Starlink 4092 52838
Starlink 4048 52839
Starlink 4049 52840
Starlink 4065 52841
Starlink 4188 52843
Starlink 4208 52844
Starlink 4168 52845
Starlink 4212 52846
Starlink 4206 52847
Starlink 4202 52848
Starlink 4197 52849
Starlink 4187 52850
...and 29 more
Technische Details
Klassifizierung Payload
Masse 297.00 kg
Trockenmasse 275.00 kg
Gesamtmasse 297.00 kg
Länge 0.20 m
Durchmesser 2.80 m
Spannweite 9.00 m
Form Box + pan
Hersteller SPXS
Bus-Typ Starlink
Phasenstatus In Orbit
Besitzer/Staat SPXS/US
Most Searched
Loading...